RH
58 66 87 91 90 96 100 93 100 87 98 91 96 86 85 100 99 96 96 100 97 96 98 100 100 100 97 88 69 64 60 66 70 64 51 37 27 22 20 20 21 32 54 58
94 93 87 87 91 92 87 86 83 81 93 90 90 83 90 75 77 99 100 98 100 100 100 100 99 100 88 76 77 66 62 68 65 54 40 32 28 25 27 29 37 50 66 66
92 92 95 93 69 65 63 64 71 88 90 82 66 61 60 75 86 83 82 100 100 100 100 100 100 86 70 68 62 63 64 65 60 48 35 32 33 36 37 40 46 62 76 74
97 100 97 57 60 64 67 70 70 77 83 64 58 53 71 76 80 89 96 100 100 100 100 99 87 76 64 64 64 64 68 68 51 39 34 34 40 46 47 51 48 61 80 77
100 93 76 88 80 92 97 90 86 77 69 71 70 70 72 78 88 92 97 100 100 100 100 100 96 79 67 69 71 74 69 54 43 39 34 36 44 50 54 56 48 52 80 84
96 100 94 69 76 93 90 89 71 67 72 72 73 77 82 87 93 94 95 96 98 100 99 93 82 77 68 69 70 66 56 49 44 41 39 39 47 54 59 59 49 47 72 91
75 88 90 83 73 82 94 82 86 86 87 92 87 89 84 88 94 96 96 98 97 88 77 75 79 79 75 74 75 71 64 54 48 46 44 48 51 61 64 62 55 46 57 87
70 74 91 76 88 94 95 99 99 98 95 90 92 89 87 90 88 88 88 90 92 80 74 74 76 79 77 76 77 72 66 58 53 49 51 55 58 62 64 63 56 48 46 71
84 78 73 74 83 96 96 91 97 98 93 90 84 81 81 80 81 82 81 82 80 75 71 73 77 80 79 81 78 73 67 60 56 55 56 58 61 63 61 60 56 50 46 58
82 74 85 89 91 88 83 83 87 92 89 91 85 82 82 82 81 79 80 80 78 74 71 70 75 79 83 84 84 78 70 63 62 58 58 60 63 66 62 59 55 50 48 52
94 81 82 80 80 84 87 87 86 86 89 88 88 82 85 81 78 77 77 76 78 78 77 73 74 78 84 89 86 80 73 68 67 64 64 62 63 64 61 58 58 52 50 48
85 77 73 63 62 63 65 65 69 70 66 69 75 74 75 73 74 74 73 74 75 79 78 74 74 75 79 86 84 76 70 72 72 70 68 66 62 58 61 59 57 57 57 56
48 40 36 34 39 43 45 47 49 52 52 53 53 62 62 64 64 67 67 68 71 72 72 70 71 72 80 85 83 78 77 78 76 76 71 66 62 60 52 47 52 55 57 54
36 36 30 35 33 35 40 43 46 48 51 56 58 60 65 64 64 66 65 68 68 69 67 68 69 67 77 80 77 77 79 79 77 74 70 66 63 59 55 51 43 39 49 52
82 83 80 74 68 67 63 54 46 44 47 48 55 56 61 64 65 64 68 72 74 72 69 69 68 67 82 78 74 73 73 73 72 70 68 63 60 58 54 50 48 50 52 54
85 87 92 91 89 88 88 85 85 79 82 76 64 58 58 58 58 59 63 69 72 70 71 71 69 74 78 76 75 72 71 70 68 66 63 60 57 54 51 47 45 52 61 71
94 83 94 90 94 92 97 100 100 98 96 94 93 95 91 74 58 53 56 62 66 62 60 63 69 81 81 80 78 76 74 70 69 65 63 62 58 52 49 45 43 50 62 94
97 94 96 96 95 94 88 93 96 98 100 99 100 100 99 100 96 84 66 66 62 59 60 64 67 71 80 80 84 81 76 73 70 67 64 62 57 53 48 46 44 47 62 92
100 100 100 100 100 100 98 96 100 98 95 100 100 99 100 100 100 100 99 77 58 57 60 68 64 64 70 77 84 83 80 74 72 70 69 68 62 59 54 47 44 46 63 93
100 100 100 100 100 100 100 100 100 99 99 100 100 100 100 100 100 100 100 96 85 69 69 66 62 59 59 65 78 87 86 85 83 78 73 70 64 58 57 51 46 44 59 97
100 100 100 100 100 100 100 100 100 100 100 100 100 100 100 99 100 100 100 96 97 100 71 63 64 61 57 57 65 78 90 91 93 86 76 74 70 65 60 53 46 43 53 92
100 100 100 100 99 97 100 100 100 100 100 100 100 100 100 96 99 99 100 99 100 100 97 70 67 68 63 60 61 68 90 97 96 88 80 83 80 68 62 55 46 43 50 82
100 100 100 100 100 100 100 100 100 100 100 100 100 100 100 100 100 99 93 100 98 99 100 99 78 70 70 85 89 66 68 81 84 87 86 87 82 72 64 58 48 43 47 68
100 100 100 100 100 100 98 97 100 100 100 100 100 100 100 100 93 100 100 100 100 100 100 100 100 78 91 99 73 58 56 60 69 72 78 84 81 75 68 60 52 44 44 54
100 100 100 100 100 100 98 100 100 100 100 95 94 100 100 100 100 99 100 100 100 100 100 100 100 100 87 76 70 65 62 59 57 62 75 79 84 78 70 63 54 44 44 50
100 100 100 100 100 100 100 100 99 97 100 98 100 100 100 100 100 100 100 100 100 100 100 100 100 100 100 84 80 72 65 62 60 56 59 72 77 77 70 64 56 49 44 49
100 100 100 100 100 100 100 100 100 96 96 98 93 94 99 100 100 100 100 100 100 100 100 100 100 100 100 96 89 86 75 68 63 59 54 64 74 76 70 64 58 53 46 47
Wind_Speed
37 35 30 34 35 33 34 41 39 49 44 48 49 53 54 50 47 42 42 41 44 44 42 43 44 41 41 39 37 38 38 39 39 39 40 41 41 42 42 43 43 43 43 41
40 34 38 44 38 35 39 40 45 46 46 45 38 30 36 40 41 37 37 39 41 41 40 38 39 36 36 34 34 34 35 36 37 39 40 40 41 41 41 41 41 42 42 41
47 25 29 34 32 31 35 37 38 40 41 38 36 37 40 40 39 39 39 35 34 34 35 35 33 33 30 30 30 31 33 35 36 38 40 39 39 39 39 39 39 40 40 40
33 26 10 19 15 19 23 27 28 27 30 35 37 38 38 39 39 37 35 33 33 33 31 29 28 28 30 30 31 33 34 35 36 38 39 38 38 38 38 38 38 38 39 38
16 17 26 29 30 28 26 25 27 32 35 34 32 31 32 30 28 28 28 28 28 27 28 27 28 31 32 31 32 32 33 34 36 37 39 38 38 37 37 38 37 36 36 38
18 11 8 12 20 25 29 23 26 25 26 28 32 33 31 29 29 29 29 30 30 30 30 29 28 29 30 30 31 32 33 34 35 37 38 38 38 37 36 37 36 35 36 35
24 27 22 22 25 26 13 19 20 26 35 38 36 33 31 29 30 31 32 31 30 30 30 30 29 30 32 32 33 34 35 35 35 36 38 37 37 36 36 36 35 34 35 34
18 21 15 21 21 21 29 37 38 37 37 37 36 37 37 35 34 33 33 31 32 33 32 32 32 33 33 34 35 36 36 36 35 36 36 36 37 35 34 35 35 34 35 35
17 23 33 40 41 39 38 39 38 36 34 36 36 36 36 37 36 35 35 34 33 34 34 33 33 34 34 33 36 37 37 36 35 35 35 35 35 34 33 33 34 33 34 35
32 35 34 35 38 36 36 34 34 36 37 37 39 38 38 37 37 36 35 34 34 35 35 34 34 34 34 33 35 37 36 35 34 34 33 33 32 32 32 31 32 32 33 35
36 33 32 33 34 35 36 36 37 38 38 39 39 39 39 39 38 37 37 36 35 35 35 35 35 34 33 33 35 36 35 34 33 33 32 31 30 30 30 28 31 32 32 33
33 31 35 35 33 33 36 35 36 38 38 37 37 38 38 39 38 38 38 36 36 35 35 35 34 34 32 32 34 35 35 33 31 31 30 30 30 28 25 27 27 27 28 31
34 34 39 37 36 35 38 37 37 39 39 40 36 38 38 39 37 38 37 37 37 37 36 36 35 33 32 31 33 34 33 32 30 29 29 29 28 29 30 22 23 24 25 27
31 35 36 33 38 35 36 37 38 39 39 39 39 38 38 39 39 38 37 36 36 37 36 35 34 33 30 32 33 31 31 29 29 29 29 28 28 27 28 29 28 24 21 24
32 33 35 35 34 33 33 36 38 38 37 37 37 38 38 39 40 39 36 35 36 36 35 35 34 31 30 32 32 31 30 28 27 27 27 27 26 26 27 28 28 27 26 22
34 34 33 35 35 34 34 33 36 35 35 36 36 36 37 38 39 39 37 36 38 37 35 34 32 29 30 31 30 29 28 27 26 26 26 25 25 25 26 26 25 25 25 26
40 38 38 38 38 36 36 35 36 36 36 36 35 35 35 35 35 34 33 32 34 36 34 33 31 29 29 30 29 28 27 25 25 24 24 24 24 24 24 24 23 23 23 23
38 38 38 40 41 40 38 38 38 38 37 36 36 37 37 36 34 33 32 31 33 32 30 30 30 31 30 28 27 27 26 25 24 23 23 23 23 22 22 22 22 22 21 20
38 40 39 39 39 40 40 40 39 39 39 38 37 37 37 36 34 33 32 32 31 30 24 27 28 30 30 28 27 25 25 24 23 22 22 21 21 21 21 21 20 20 21 20
40 39 40 40 39 40 41 40 40 39 37 38 38 37 36 35 33 33 32 32 28 27 26 26 26 27 27 26 26 25 24 22 22 22 22 22 21 20 19 20 20 19 19 18
39 39 40 40 41 39 38 39 39 38 35 34 35 35 35 34 33 32 33 32 22 25 26 25 25 24 23 23 23 23 22 21 21 22 21 20 19 19 19 19 18 18 18 17
39 39 39 39 41 41 38 38 38 38 36 34 33 33 33 33 32 31 30 29 25 24 24 23 22 22 21 19 20 21 22 22 23 23 21 19 19 19 17 17 16 16 16 16
40 40 40 39 40 40 39 36 36 34 33 32 31 30 30 30 30 31 29 23 25 24 23 21 20 19 17 17 20 22 23 24 24 23 22 19 19 18 16 15 14 14 14 14
42 41 40 39 39 38 38 36 34 32 31 31 31 30 29 29 27 27 27 26 24 22 22 22 19 17 17 20 23 23 23 24 25 24 20 19 17 16 15 14 13 13 13 13
43 42 40 39 38 38 38 37 35 32 32 31 31 29 29 28 28 24 24 23 22 21 21 19 18 17 20 20 20 19 20 21 21 20 19 18 17 16 15 14 12 11 11 11
42 41 40 38 37 37 37 36 36 37 36 35 32 29 27 26 26 25 23 22 21 19 19 19 18 18 18 18 19 19 18 17 17 18 20 19 16 15 14 14 12 10 10 9
42 41 41 39 37 36 35 35 37 37 35 33 32 29 30 30 28 25 24 21 20 18 17 17 17 16 17 16 16 17 17 16 15 16 18 20 16 15 14 13 11 10 9 7
Wind_Direction
267 271 270 268 267 266 260 262 257 275 276 284 286 287 286 283 285 287 286 278 280 283 282 280 276 274 279 279 284 287 289 289 290 290 290 291 292 294 297 300 302 302 302 301
271 271 274 276 273 269 266 268 269 274 275 278 284 284 290 290 286 285 283 283 284 282 278 274 274 274 274 279 281 285 287 289 290 290 290 291 292 295 297 299 300 301 302 302
276 283 284 282 278 272 272 270 271 268 274 281 282 285 289 287 285 283 285 284 280 278 277 276 276 276 277 280 283 286 288 289 290 290 291 293 295 297 299 299 299 300 302 303
275 292 263 271 295 287 279 273 272 277 285 286 286 288 289 288 288 285 283 279 277 276 276 277 278 280 281 284 286 287 289 291 292 292 293 296 298 300 300 299 299 301 303 305
253 255 273 281 282 281 284 282 287 287 285 289 298 302 299 296 290 286 284 283 281 279 278 279 282 283 283 285 286 287 287 290 292 294 295 297 299 299 300 299 299 301 305 308
255 282 275 292 299 296 296 286 289 292 296 301 300 298 300 300 294 291 289 289 289 286 285 285 284 284 285 287 287 287 289 290 292 295 297 299 300 299 299 299 301 303 306 310
265 268 275 282 286 295 288 290 296 297 296 297 298 297 296 293 289 290 291 291 289 287 287 286 286 285 286 286 286 287 288 290 292 295 297 300 300 299 298 298 300 301 305 310
273 282 272 278 299 296 298 298 297 296 296 295 294 295 296 296 295 294 292 291 289 288 288 289 289 288 287 288 288 288 288 290 292 294 297 299 298 297 297 298 299 302 303 307
270 268 279 285 286 292 293 292 294 292 292 292 293 294 296 295 295 293 293 294 293 291 290 290 290 289 289 290 288 287 286 288 291 293 296 297 297 297 297 298 299 301 304 307
290 291 293 292 294 294 297 298 295 296 296 296 296 297 296 295 294 294 295 294 292 291 290 290 289 290 291 289 287 286 286 289 292 294 295 296 298 299 298 299 299 302 304 307
292 295 298 296 299 301 299 299 298 297 297 296 296 296 297 296 295 295 295 294 293 292 291 291 290 290 290 290 287 286 287 290 293 294 296 296 297 299 299 302 306 307 309 310
299 307 301 302 303 299 297 299 297 296 294 295 296 296 295 294 294 294 294 294 293 292 290 289 288 289 289 288 287 287 288 291 293 294 296 298 298 297 298 302 303 303 306 308
306 304 300 306 302 301 299 299 297 294 295 297 295 294 293 294 294 293 293 293 293 291 290 290 289 289 289 287 285 286 289 291 292 294 295 298 301 304 302 295 303 306 306 306
314 310 311 312 307 306 305 303 301 299 300 299 299 296 295 295 294 293 294 293 292 290 289 288 287 287 288 285 284 286 287 290 292 294 295 298 301 304 307 311 309 307 308 310
317 314 315 313 313 313 308 305 303 302 302 299 296 295 294 293 293 294 294 294 291 290 290 288 287 288 286 284 285 287 288 290 290 291 293 296 300 303 307 309 312 314 315 315
318 318 316 310 311 309 306 305 304 308 308 307 305 302 297 294 294 294 294 293 289 288 288 288 288 288 282 281 282 283 286 287 288 290 292 295 297 301 305 307 312 317 322 326
322 322 319 317 315 315 312 309 306 305 303 302 303 303 301 301 299 299 297 293 288 287 288 287 286 283 282 281 281 283 283 283 284 285 290 292 295 299 304 307 313 319 323 329
324 323 322 320 320 318 317 315 314 312 309 307 304 301 301 302 305 305 301 296 291 291 292 290 284 279 278 280 281 280 281 281 282 283 285 289 294 299 304 309 313 317 320 327
329 326 325 323 322 319 318 317 315 311 310 309 306 303 301 300 301 301 301 298 297 296 297 284 279 277 276 277 278 281 278 277 278 279 283 287 292 297 301 305 310 314 319 326
330 327 326 324 323 320 318 317 314 313 312 307 304 304 303 303 299 296 295 298 305 302 293 288 284 279 276 273 272 273 277 278 276 275 279 284 289 295 301 303 308 312 316 322
332 331 330 327 325 324 321 319 316 315 314 310 308 306 303 302 301 299 294 294 306 296 291 292 291 287 281 274 267 266 267 269 269 271 275 278 284 290 295 299 304 308 312 317
330 330 332 332 330 330 328 325 321 318 317 316 312 310 307 306 302 297 296 297 294 290 295 294 290 285 284 278 268 260 258 260 263 271 279 281 283 286 288 293 300 304 309 313
331 331 332 332 331 331 332 329 322 321 319 318 317 315 311 309 307 304 303 298 289 290 292 295 293 289 284 276 268 264 256 255 262 268 274 275 276 279 282 287 297 301 306 311
333 333 332 330 329 329 332 334 328 326 324 323 320 317 314 311 308 307 304 302 297 290 286 291 294 288 284 275 269 266 264 259 258 262 267 268 270 272 275 280 290 298 306 312
334 333 332 330 329 330 333 334 333 329 326 325 325 324 319 315 313 311 306 304 301 293 285 282 280 280 275 281 280 277 273 271 269 267 262 260 261 266 268 273 280 290 301 309
333 335 335 334 335 334 333 332 335 336 331 329 328 323 318 317 316 314 310 305 300 294 287 280 275 277 278 279 282 281 278 271 268 262 255 251 251 254 258 265 271 282 295 305
337 339 338 339 339 337 335 337 333 332 331 330 327 327 324 323 320 317 314 307 297 287 283 283 279 274 279 282 280 281 280 278 271 262 249 244 244 244 248 253 260 266 278 290